Temperature
2 3 3 3 3 3 2 2 3 3 3 4 4 4 4 4 4 3 4 4 4 4 3 3 3 3 3 3 2 2 2 2 2 2 1 1 1 1 1 1 1 1 1 1
2 2 2 3 3 3 3 3 3 3 3 4 4 4 3 3 3 3 3 3 3 3 3 3 3 3 3 2 2 2 2 1 1 1 1 1 1 1 1 1 1 1 1 1
2 2 2 2 3 2 2 2 2 3 4 3 3 3 3 3 3 3 3 3 3 3 3 3 3 3 2 2 2 1 1 1 1 1 1 1 1 1 1 1 1 0 0 0
1 1 2 4 3 3 3 3 2 2 2 3 3 3 4 4 3 3 3 3 3 3 3 3 3 2 2 2 1 1 1 1 1 1 1 0 0 0 0 0 0 -0 -0 -0
0 1 2 3 3 2 2 2 2 2 2 2 3 2 3 4 3 3 3 3 3 3 3 3 2 2 2 1 1 1 1 1 1 0 0 0 0 0 -0 -0 -0 -1 -1 -1
0 1 2 4 3 3 3 2 2 2 2 2 1 1 1 3 3 3 3 3 2 2 2 2 2 2 1 1 1 1 0 0 0 0 0 0 -0 -0 -1 -1 -1 -1 -1 -1
-0 1 1 2 2 3 2 3 3 3 2 2 1 2 3 3 2 2 2 2 2 2 2 2 2 1 1 1 1 0 0 0 0 -0 -0 -0 -1 -1 -1 -1 -1 -1 -1 -1
-1 0 2 2 1 1 2 3 3 3 3 2 2 2 2 2 2 2 2 2 2 2 2 2 1 1 1 1 0 0 -0 -0 -0 -0 -1 -1 -1 -1 -1 -1 -2 -2 -2 -2
0 2 2 2 3 3 3 3 3 3 3 3 2 2 2 2 2 2 1 1 1 1 1 1 1 1 0 0 0 -0 -0 -1 -1 -1 -1 -1 -1 -1 -2 -2 -2 -2 -2 -2
-1 0 1 2 3 3 3 3 3 3 3 2 2 2 2 2 1 1 1 1 1 1 1 1 1 0 0 -0 -0 -0 -1 -1 -1 -1 -1 -1 -1 -2 -2 -2 -2 -2 -2 -3
-1 -0 1 2 3 3 3 3 3 3 2 2 2 2 1 1 1 1 1 1 1 1 1 1 0 0 -0 -0 -1 -1 -1 -1 -1 -1 -1 -1 -2 -2 -2 -2 -2 -2 -3 -3
1 1 1 2 4 3 3 3 2 2 2 2 1 1 1 1 1 0 0 0 0 0 0 0 0 -0 -0 -0 -1 -1 -1 -1 -1 -1 -2 -2 -2 -2 -2 -2 -2 -3 -3 -3
3 3 3 3 3 3 2 2 2 2 2 1 1 1 1 0 0 0 -0 -0 -0 0 0 -0 -0 -0 -1 -1 -1 -1 -1 -1 -1 -1 -2 -2 -2 -2 -2 -2 -3 -3 -3 -3
3 2 2 2 2 2 2 1 1 1 1 1 1 0 0 0 -0 -0 -0 -0 -0 -0 -0 -0 -0 -1 -1 -1 -1 -1 -1 -2 -2 -2 -2 -2 -2 -3 -3 -3 -3 -3 -3 -3
2 2 2 2 1 1 1 1 1 1 1 0 0 0 -0 -0 -0 -1 -1 -1 -1 -1 -1 -1 -1 -1 -1 -1 -1 -1 -2 -2 -2 -2 -2 -2 -3 -3 -3 -3 -3 -3 -3 -3
1 1 1 1 1 1 1 0 0 0 0 0 -0 -0 -0 -0 -1 -1 -1 -1 -1 -1 -1 -1 -1 -1 -1 -1 -2 -2 -2 -2 -2 -2 -2 -3 -3 -3 -3 -3 -3 -3 -4 -4
0 -0 0 0 0 0 0 0 0 0 -0 -0 -0 -0 -1 -1 -1 -1 -1 -1 -1 -1 -1 -1 -1 -2 -2 -2 -2 -2 -2 -2 -2 -2 -3 -3 -3 -3 -3 -3 -4 -4 -4 -4
1 1 1 1 0 0 -0 -0 -0 -0 -0 -0 -1 -1 -1 -1 -1 -1 -1 -2 -2 -2 -2 -2 -2 -2 -2 -2 -2 -2 -2 -2 -3 -3 -3 -3 -3 -3 -4 -4 -4 -4 -4 -4
1 0 0 0 0 -0 -0 -0 -0 -1 -1 -1 -1 -1 -1 -1 -2 -2 -2 -2 -2 -2 -2 -2 -2 -2 -2 -2 -2 -2 -3 -3 -3 -3 -3 -3 -3 -4 -4 -4 -4 -4 -4 -5
0 0 0 -0 -0 -0 -1 -1 -1 -1 -1 -1 -1 -2 -2 -2 -2 -2 -2 -2 -2 -2 -2 -3 -3 -3 -3 -3 -3 -3 -3 -3 -3 -3 -3 -4 -4 -4 -4 -4 -4 -4 -5 -5
0 0 -0 -0 -1 -1 -1 -1 -1 -1 -2 -2 -2 -2 -2 -2 -2 -2 -2 -2 -2 -3 -3 -3 -3 -3 -3 -3 -3 -3 -3 -3 -3 -4 -4 -4 -4 -4 -4 -4 -5 -5 -5 -5
0 -0 -0 -1 -1 -1 -1 -1 -2 -2 -2 -2 -2 -2 -3 -3 -3 -3 -3 -3 -3 -3 -3 -3 -3 -3 -3 -3 -3 -3 -4 -4 -4 -4 -4 -4 -4 -4 -5 -5 -5 -5 -5 -5
-0 -1 -1 -1 -1 -1 -2 -2 -2 -2 -2 -3 -3 -3 -3 -3 -3 -3 -3 -3 -3 -3 -3 -3 -3 -4 -4 -4 -4 -4 -4 -4 -4 -4 -4 -5 -5 -5 -5 -5 -5 -5 -5 -5
-1 -1 -1 -1 -2 -2 -2 -2 -3 -3 -3 -3 -3 -3 -3 -3 -3 -3 -3 -3 -3 -4 -4 -4 -4 -4 -4 -4 -4 -4 -4 -4 -5 -5 -5 -5 -5 -5 -5 -5 -5 -5 -5 -5
-1 -1 -2 -2 -2 -2 -2 -3 -3 -3 -3 -3 -3 -3 -4 -4 -4 -4 -4 -4 -4 -4 -4 -4 -4 -4 -4 -4 -5 -5 -5 -5 -5 -5 -5 -5 -5 -6 -6 -6 -6 -6 -6 -6
-2 -2 -2 -2 -2 -3 -3 -3 -3 -3 -4 -4 -4 -4 -4 -4 -4 -4 -4 -4 -4 -4 -4 -5 -5 -5 -5 -5 -5 -5 -5 -5 -5 -5 -5 -6 -6 -6 -6 -6 -6 -6 -6 -6
-2 -3 -3 -3 -3 -3 -3 -3 -4 -4 -4 -4 -4 -4 -4 -4 -5 -5 -5 -5 -5 -5 -5 -5 -5 -5 -5 -5 -5 -5 -5 -5 -5 -6 -6 -6 -6 -6 -6 -6 -6 -6 -6 -6
Wind_Speed
8 7 5 8 10 10 11 11 10 11 12 14 10 9 8 7 7 7 6 5 5 5 5 4 4 4 4 4 4 4 4 5 5 5 4 4 3 3 3 3 3 3 3 3
6 7 8 10 13 13 13 12 14 14 16 12 9 6 7 8 7 7 7 7 6 5 5 5 5 5 4 4 4 4 4 5 5 4 4 4 3 3 3 3 3 2 3 3
5 4 3 9 11 12 8 9 10 14 14 8 7 8 9 9 8 8 7 6 6 6 6 6 5 5 5 4 3 4 4 5 4 4 4 4 4 4 4 3 3 3 3 3
3 1 8 8 4 7 9 10 11 10 9 7 9 9 9 7 7 8 7 6 6 5 5 5 5 4 4 3 4 4 4 4 4 4 4 4 4 4 4 3 3 3 3 3
3 5 8 7 4 5 7 8 7 10 11 9 6 5 6 5 5 6 7 6 6 5 4 4 5 4 4 4 4 4 4 4 4 4 5 4 4 4 3 3 3 3 3 3
4 5 7 6 3 2 3 6 5 6 8 6 1 3 6 4 4 5 4 3 3 2 2 3 4 4 4 4 4 5 5 5 4 4 4 4 4 4 3 3 3 3 3 3
7 7 8 6 2 4 3 7 4 4 5 4 5 6 5 5 5 4 3 3 2 2 3 3 3 4 4 4 5 5 4 3 3 4 4 4 3 2 2 2 2 2 3 2
6 7 9 4 6 7 8 3 3 3 4 5 6 6 5 4 5 4 4 3 2 2 3 2 3 4 4 5 4 3 3 3 3 3 3 3 3 2 2 3 3 2 2 2
9 9 4 6 7 5 3 4 4 4 5 5 5 5 5 4 4 4 4 3 3 3 2 2 2 3 4 4 3 3 3 3 3 3 2 2 3 3 2 2 2 2 2 3
6 9 7 7 6 6 5 6 6 5 5 5 5 5 5 4 4 4 4 3 3 2 2 3 3 3 4 4 3 3 3 3 3 2 2 2 2 2 3 3 3 3 3 3
8 8 6 7 8 8 7 5 5 5 4 5 5 5 5 4 5 4 4 3 2 3 3 4 3 3 3 3 3 3 3 3 3 2 2 2 2 3 3 4 4 4 4 3
10 8 7 7 6 6 6 6 6 5 4 4 5 5 4 4 4 4 3 3 2 3 3 3 3 3 3 3 4 4 3 3 2 2 2 2 2 2 3 3 4 5 4 4
9 6 6 6 5 5 5 5 5 4 5 4 3 4 4 4 4 3 3 3 3 4 4 3 3 3 3 3 3 4 4 3 3 3 3 3 2 2 2 2 3 3 3 4
7 5 5 5 5 5 4 4 3 2 3 3 3 2 2 3 3 3 4 4 4 3 3 3 3 3 3 3 3 3 3 3 3 3 3 3 3 3 2 2 2 2 3 4
7 7 7 4 4 3 3 3 2 2 2 2 2 3 2 3 4 4 4 3 2 2 3 2 3 4 3 2 3 3 3 2 2 2 3 3 3 2 2 2 2 2 1 2
5 5 5 5 5 4 3 4 4 4 4 4 3 3 4 4 4 4 3 2 2 3 4 3 4 4 2 2 3 2 2 3 2 2 2 3 3 3 2 3 3 2 2 2
6 6 6 6 6 5 5 6 6 5 4 4 4 4 2 2 2 3 3 3 3 4 4 4 5 3 2 3 3 2 2 2 3 2 2 3 3 3 3 2 2 2 2 3
9 8 7 7 6 6 5 4 4 4 4 4 3 2 2 3 3 4 4 3 2 3 4 4 3 2 2 2 2 2 2 2 2 2 2 2 2 2 2 2 2 2 1 2
5 6 6 6 6 5 5 4 4 4 3 3 3 3 3 4 4 3 2 1 2 3 4 4 3 1 2 2 2 2 2 2 2 1 1 2 1 1 2 2 2 2 1 1
3 3 4 3 3 4 4 3 3 2 3 2 2 2 2 3 2 2 1 2 3 3 3 2 1 1 1 2 2 2 2 2 2 2 1 1 1 1 2 2 2 2 2 2
4 4 4 3 2 2 3 3 3 3 2 2 3 3 3 3 2 1 1 2 3 2 2 1 1 1 1 1 2 2 2 2 2 2 2 1 1 1 2 2 2 2 2 1
3 3 3 2 2 1 1 1 2 2 2 1 2 2 1 1 1 1 2 2 2 2 1 1 0 0 1 1 2 2 2 2 2 2 2 2 2 2 1 1 2 1 1 1
3 3 3 3 3 2 0 0 1 2 2 2 2 2 2 2 1 1 2 2 1 1 1 0 0 0 1 1 1 2 2 2 1 1 1 1 2 2 2 2 2 1 1 1
3 3 2 2 2 2 1 1 0 1 1 1 1 2 1 1 1 1 2 2 1 1 0 0 1 1 1 1 1 1 1 1 1 1 1 1 1 1 1 1 1 1 1 1
3 3 3 3 2 2 2 1 0 0 0 0 1 1 1 1 1 1 1 1 1 0 0 0 1 1 1 1 1 1 1 1 1 1 1 1 1 1 1 1 1 1 1 1
2 2 2 2 2 2 2 1 1 1 1 0 1 1 1 0 0 0 0 1 1 0 0 0 1 1 1 1 1 1 1 0 0 0 1 1 1 1 0 1 1 1 1 1
1 1 1 1 1 1 2 2 2 2 2 2 1 1 0 0 0 0 0 0 0 0 0 0 1 1 1 1 1 1 1 0 0 0 1 1 1 1 1 1 1 1 0 1
Wind_Direction
253 257 235 236 236 221 217 219 229 250 253 263 269 267 271 272 274 272 261 252 240 232 228 226 221 219 216 222 221 216 214 218 227 230 226 230 234 239 242 230 228 228 235 248
266 255 246 255 247 233 231 232 239 257 266 265 274 272 272 273 266 260 255 252 250 241 230 225 219 218 219 225 224 217 220 225 228 226 223 228 233 242 236 231 231 229 234 238
255 273 282 260 235 222 223 219 214 239 252 271 279 273 267 266 258 255 254 252 247 241 235 227 218 210 215 220 219 219 227 228 225 219 220 224 229 232 226 225 224 229 236 236
249 259 240 247 220 210 222 236 226 241 261 263 261 270 269 257 248 255 253 253 247 238 237 230 213 214 211 206 209 218 224 225 221 215 222 225 220 224 228 224 223 228 238 244
204 241 269 283 253 199 207 250 232 240 258 268 277 303 291 266 247 247 254 254 246 235 234 220 215 211 199 204 210 216 221 223 222 218 222 220 220 225 228 225 234 235 234 235
202 224 243 254 254 215 142 267 254 228 249 263 269 289 277 289 287 279 277 264 250 241 234 216 217 193 187 201 206 220 223 221 217 211 211 216 220 227 229 227 232 231 238 235
215 235 260 254 222 116 172 253 257 223 236 226 217 233 262 294 298 288 285 279 253 228 226 223 209 181 192 205 221 226 218 213 214 211 212 212 213 213 217 223 227 227 235 243
192 223 252 208 148 187 225 250 241 236 230 232 239 255 267 284 295 302 299 289 264 238 239 231 195 181 199 226 233 216 202 209 220 217 214 206 197 209 211 207 215 225 231 251
201 219 237 186 201 226 222 242 250 242 244 236 244 258 270 280 287 287 283 272 259 227 232 244 212 193 210 235 225 204 201 215 224 223 220 207 201 207 212 203 208 227 228 242
236 251 250 238 241 252 246 244 252 250 247 235 242 250 262 276 286 290 284 270 259 218 219 245 241 222 224 228 209 196 207 219 221 214 221 210 203 206 210 213 216 224 226 236
241 258 274 253 236 241 249 250 256 262 246 232 232 249 256 267 274 277 281 273 243 220 227 244 249 245 237 218 197 205 213 217 216 213 213 207 215 224 225 228 221 219 221 223
233 227 216 243 236 227 234 245 243 242 255 247 228 243 256 265 270 272 271 268 259 245 241 252 251 250 247 222 200 201 212 215 212 211 207 206 216 266 268 248 246 246 233 232
230 230 222 239 243 229 225 234 234 224 224 239 245 235 246 260 267 270 268 262 254 251 244 243 248 249 254 236 206 202 211 214 208 204 205 209 211 216 255 286 262 253 247 245
224 222 246 241 240 234 222 225 226 232 228 220 233 242 248 264 274 271 265 260 257 256 252 243 243 249 248 230 214 216 214 216 212 204 202 202 207 215 218 227 255 274 266 254
230 219 220 224 224 224 217 206 211 238 245 252 231 231 238 249 262 267 272 271 268 269 265 255 252 260 258 217 207 212 211 215 215 201 197 202 209 213 217 226 238 252 268 267
218 215 215 217 223 221 209 206 217 237 237 241 243 246 241 240 255 271 277 260 248 263 265 256 256 258 242 208 204 208 215 223 207 198 198 201 207 210 215 222 230 230 233 239
202 216 213 216 221 222 220 220 220 226 230 233 240 243 242 249 267 279 283 271 254 258 260 255 258 256 226 205 196 204 208 213 205 198 205 208 208 211 212 214 224 233 241 240
214 215 206 202 210 219 227 225 220 221 228 236 234 229 229 236 249 263 274 283 288 291 283 271 260 236 221 209 192 194 197 204 208 210 210 209 211 208 205 210 220 229 246 255
204 205 206 209 207 204 212 220 222 227 232 222 219 230 238 243 252 264 275 270 270 283 291 285 271 222 222 215 176 179 184 189 200 212 207 217 221 213 205 207 220 226 222 229
183 185 190 196 193 191 201 208 209 223 228 210 213 230 249 260 263 265 261 257 259 266 278 283 248 225 219 204 170 172 177 183 189 195 201 202 208 222 220 215 217 222 223 225
176 177 179 187 195 199 200 195 190 212 226 203 204 222 238 258 258 234 234 277 292 297 294 284 245 225 191 173 157 162 171 176 181 190 196 204 218 226 226 220 219 221 222 225
176 174 182 181 172 198 224 187 178 189 202 209 217 216 221 255 263 260 247 254 279 316 338 274 269 125 142 147 148 156 165 169 176 182 189 197 206 221 230 233 235 240 231 224
173 175 179 182 182 179 133 132 174 183 195 209 218 221 227 243 238 232 275 285 275 301 325 260 117 91 104 121 150 159 164 169 178 185 194 204 211 215 221 232 238 240 241 240
174 177 183 171 143 136 183 265 223 184 189 221 230 222 213 238 283 264 259 277 295 306 306 278 99 111 104 84 146 157 165 176 185 190 194 203 211 219 224 227 239 254 252 252
178 174 167 162 173 205 217 203 115 123 139 323 305 290 254 225 231 263 274 262 266 290 321 262 128 116 104 119 159 163 168 179 180 175 180 190 206 219 230 232 242 252 251 245
180 186 198 202 202 206 199 185 193 209 194 241 326 332 336 351 120 256 284 267 237 217 294 209 161 135 131 146 158 157 157 187 212 178 171 182 187 186 209 250 266 268 259 257
154 168 176 207 234 207 198 196 202 219 215 202 254 291 299 1 52 354 322 296 228 104 98 106 115 131 144 157 167 161 154 158 162 168 171 172 173 186 208 223 256 266 222 203
Height
1476 1473 1474 1473 1472 1473 1474 1472 1472 1462 1458 1448 1446 1445 1443 1442 1440 1438 1436 1435 1434 1434 1433 1433 1433 1433 1433 1433 1433 1433 1432 1432 1432 1433 1433 1433 1433 1433 1433 1433 1433 1433 1432 1432
1475 1471 1471 1469 1464 1464 1464 1463 1461 1458 1452 1442 1442 1441 1440 1438 1436 1434 1432 1432 1431 1431 1430 1430 1430 1429 1429 1429 1429 1429 1428 1428 1429 1429 1429 1429 1429 1429 1429 1429 1429 1429 1429 1428
1473 1472 1469 1464 1454 1455 1455 1453 1453 1451 1443 1439 1439 1437 1435 1433 1432 1430 1429 1428 1427 1426 1426 1426 1426 1426 1426 1426 1425 1425 1425 1425 1425 1425 1425 1425 1425 1425 1425 1425 1425 1425 1425 1425
1474 1473 1467 1448 1444 1444 1446 1444 1443 1440 1437 1436 1435 1433 1431 1429 1428 1426 1425 1424 1423 1422 1422 1422 1422 1423 1422 1422 1422 1422 1421 1421 1421 1421 1421 1421 1422 1421 1421 1421 1421 1421 1421 1421
1473 1469 1457 1446 1442 1442 1443 1440 1435 1435 1433 1432 1431 1430 1427 1425 1424 1423 1422 1420 1419 1419 1418 1418 1419 1419 1419 1419 1419 1418 1418 1418 1418 1418 1418 1418 1417 1417 1417 1417 1417 1417 1418 1418
1469 1464 1455 1441 1437 1435 1439 1439 1430 1430 1430 1430 1430 1432 1426 1423 1421 1419 1418 1417 1416 1415 1415 1415 1415 1415 1415 1415 1415 1414 1414 1414 1414 1414 1414 1414 1414 1414 1414 1414 1414 1414 1414 1414
1464 1461 1448 1437 1435 1436 1443 1435 1427 1426 1427 1427 1427 1426 1423 1421 1419 1417 1415 1414 1413 1412 1411 1412 1412 1412 1411 1411 1411 1411 1411 1411 1411 1411 1411 1410 1411 1411 1411 1411 1411 1411 1411 1411
1459 1457 1445 1432 1433 1435 1431 1426 1425 1424 1424 1423 1422 1421 1419 1418 1416 1414 1412 1411 1410 1409 1408 1409 1408 1408 1408 1408 1408 1409 1408 1408 1408 1408 1407 1407 1407 1407 1407 1408 1407 1407 1407 1407
1442 1435 1427 1426 1425 1424 1424 1423 1422 1422 1421 1421 1419 1417 1416 1414 1413 1411 1410 1408 1407 1407 1406 1406 1406 1405 1405 1405 1406 1406 1405 1405 1405 1404 1405 1405 1404 1404 1404 1404 1404 1404 1404 1404
1435 1426 1423 1422 1421 1421 1421 1420 1419 1419 1418 1417 1415 1414 1412 1411 1409 1408 1407 1405 1404 1404 1403 1403 1403 1403 1403 1403 1403 1403 1402 1402 1402 1402 1402 1402 1401 1401 1401 1401 1401 1401 1401 1400
1427 1421 1419 1416 1416 1416 1416 1415 1415 1415 1414 1413 1412 1411 1409 1408 1406 1405 1404 1403 1402 1401 1401 1401 1401 1400 1400 1401 1401 1400 1400 1400 1399 1399 1399 1399 1399 1399 1399 1399 1399 1399 1398 1398
1415 1411 1413 1410 1410 1411 1411 1411 1410 1410 1410 1410 1409 1408 1407 1405 1404 1403 1401 1400 1399 1399 1398 1398 1398 1398 1398 1398 1398 1397 1397 1397 1397 1397 1397 1396 1396 1396 1396 1396 1396 1396 1396 1396
1404 1404 1405 1405 1406 1407 1407 1407 1407 1406 1406 1405 1405 1405 1403 1402 1401 1400 1399 1398 1397 1396 1396 1395 1395 1395 1395 1395 1395 1394 1394 1394 1394 1394 1394 1393 1393 1393 1393 1393 1393 1393 1393 1393
1400 1401 1401 1401 1402 1402 1403 1403 1403 1403 1402 1402 1401 1401 1400 1399 1398 1397 1396 1395 1394 1394 1393 1393 1392 1392 1392 1392 1392 1391 1391 1391 1391 1391 1391 1391 1391 1391 1391 1390 1390 1390 1390 1390
1396 1397 1396 1396 1398 1398 1399 1399 1399 1398 1398 1398 1398 1397 1397 1396 1395 1394 1394 1393 1392 1391 1391 1390 1390 1390 1390 1389 1389 1388 1388 1388 1388 1388 1388 1388 1388 1388 1388 1388 1387 1387 1387 1387
1391 1392 1392 1393 1393 1394 1394 1395 1395 1394 1395 1394 1394 1394 1394 1393 1392 1392 1391 1390 1389 1388 1388 1387 1387 1387 1387 1386 1386 1386 1385 1385 1385 1385 1385 1385 1385 1385 1385 1385 1384 1384 1384 1384
1386 1386 1387 1388 1388 1389 1390 1390 1391 1391 1391 1391 1391 1391 1390 1389 1389 1388 1388 1387 1386 1386 1385 1385 1384 1384 1384 1383 1383 1383 1383 1383 1383 1383 1383 1383 1383 1383 1382 1382 1382 1381 1381 1382
1380 1381 1382 1383 1384 1385 1385 1386 1387 1387 1387 1387 1388 1387 1387 1386 1385 1385 1385 1384 1383 1383 1382 1382 1381 1381 1381 1381 1380 1380 1380 1380 1380 1380 1380 1380 1380 1380 1380 1380 1379 1379 1379 1379
1375 1377 1378 1379 1380 1381 1381 1382 1383 1383 1384 1384 1384 1384 1383 1383 1382 1382 1382 1381 1380 1379 1379 1379 1379 1379 1378 1378 1378 1378 1377 1377 1377 1377 1378 1378 1378 1377 1377 1377 1377 1377 1377 1377
1373 1374 1375 1376 1377 1378 1378 1379 1379 1380 1380 1380 1380 1380 1380 1379 1379 1379 1378 1378 1377 1377 1376 1376 1376 1376 1376 1375 1375 1375 1375 1375 1375 1375 1375 1375 1375 1375 1375 1375 1375 1375 1375 1375
1371 1372 1373 1374 1375 1375 1376 1376 1376 1376 1377 1377 1377 1377 1376 1376 1376 1376 1375 1375 1375 1375 1374 1374 1373 1373 1373 1373 1373 1373 1373 1372 1372 1372 1372 1372 1372 1372 1372 1372 1372 1372 1372 1372
1370 1371 1371 1372 1372 1373 1374 1374 1374 1374 1374 1374 1374 1374 1374 1373 1373 1373 1373 1373 1372 1372 1371 1371 1371 1371 1371 1371 1371 1370 1370 1370 1370 1370 1370 1370 1370 1370 1370 1370 1370 1370 1370 1370
1368 1369 1370 1370 1371 1371 1371 1372 1372 1372 1372 1371 1371 1371 1371 1371 1371 1370 1370 1370 1369 1369 1369 1368 1369 1369 1369 1369 1369 1368 1368 1368 1368 1368 1368 1368 1368 1368 1368 1368 1368 1368 1367 1368
1367 1368 1369 1369 1369 1369 1369 1370 1370 1370 1370 1370 1369 1369 1369 1368 1368 1368 1368 1367 1367 1367 1366 1366 1366 1366 1367 1366 1366 1366 1366 1366 1366 1366 1366 1366 1366 1366 1366 1366 1366 1365 1365 1365
1365 1366 1367 1367 1367 1367 1367 1368 1368 1368 1368 1368 1367 1367 1367 1366 1366 1365 1365 1365 1365 1364 1364 1364 1364 1364 1364 1365 1365 1364 1364 1364 1364 1364 1364 1364 1364 1364 1364 1364 1364 1364 1364 1363
1364 1364 1365 1366 1366 1366 1366 1366 1366 1366 1366 1365 1365 1365 1364 1364 1364 1363 1363 1363 1363 1362 1362 1362 1362 1362 1362 1362 1362 1362 1362 1362 1363 1363 1363 1362 1362 1362 1362 1362 1362 1362 1362 1362
1362 1363 1363 1364 1364 1364 1364 1364 1364 1363 1363 1363 1363 1362 1362 1362 1361 1361 1361 1361 1361 1360 1360 1360 1360 1360 1360 1360 1360 1361 1361 1361 1361 1361 1361 1361 1360 1360 1360 1360 1360 1360 1360 1360